Anniston, AL

6:19 AM CDT on July 28, 2017 (GMT -0500)
Anniston Metro

Weather History for KANB - February, 2014

Change the Weather History Date:

Sunday, February 9, 2014

  Actual Average Record
Temperature  
Mean Temperature 47 °F 46 °F  
Max Temperature 61 °F 57 °F 80 °F (1965)
Min Temperature 32 °F 35 °F 13 °F (1971)
Degree Days  
Heating Degree Days 18    
Month to date heating degree days 178  
Since 1 July heating degree days 2146  
Moisture  
Dew Point 36 °F    
Average Humidity 68    
Maximum Humidity 92    
Minimum Humidity 44    
Precipitation  
Precipitation 0.00 in 0.18 in 3.68 in (1946)
Month to date precipitation 1.62 1.58  
Year to date precipitation 4.67 6.10  
Sea Level Pressure  
Sea Level Pressure 30.14 in    
Wind  
Wind Speed 3 mph (WSW)    
Max Wind Speed 16 mph    
Max Gust Speed 20 mph    
T = Trace of Precipitation, MM = Missing Value Source: NWS Daily Summary

Daily Weather History Graph

Daily Weather History Graph

Search for Another Location

Airport or City:

Trip Planner

Search our weather history database for the weather conditions in past years. The results will help you decide how hot, cold, wet, or windy it might be!

Date:

Astronomy

Feb. 09, 2014 Rise Set
Actual Time 6:33 AM CST 5:22 PM CST
Civil Twilight 6:07 AM CST 5:48 PM CST
Nautical Twilight 5:38 AM CST 6:17 PM CST
Astronomical Twilight 5:09 AM CST 6:46 PM CST
Moon 1:06 PM CST (2/9) 2:33 AM CST (2/9)
Length of Visible Light 11h 40m
Length of Day
10h 49m
Waxing Gibbous, 77% of the Moon is Illuminated
Feb 9
Waxing Gibbous
Feb 14
Full
Feb 22
Last Quarter
Mar 1
New
Mar 8
First Quarter

Hourly Weather History & Observations

Time (CST) Temp. Windchill Dew Point Humidity Pressure Visibility Wind Dir Wind Speed Gust Speed Precip Events Conditions
12:53 AM 35.1 °F - 32.0 °F 89% 30.17 in - Calm Calm - N/A   Mostly Cloudy
1:53 AM 36.0 °F - 32.0 °F 86% 30.15 in - Calm Calm - N/A   Clear
2:53 AM 35.1 °F 32.2 °F 32.0 °F 89% 30.16 in - North 3.5 mph - N/A   Clear
3:53 AM 34.0 °F - 30.9 °F 89% 30.15 in - Calm Calm - N/A   Clear
4:53 AM 32.0 °F 28.7 °F 30.0 °F 92% 30.17 in - SE 3.5 mph - N/A   Clear
5:53 AM 32.0 °F - 28.9 °F 88% 30.19 in - Calm Calm - N/A   Clear
6:53 AM 33.1 °F - 30.9 °F 92% 30.20 in - Calm Calm - N/A   Overcast
7:53 AM 36.0 °F - 33.1 °F 89% 30.22 in - Calm Calm - N/A   Overcast
8:53 AM 39.9 °F 37.8 °F 36.0 °F 86% 30.22 in - East 3.5 mph - N/A   Overcast
9:53 AM 46.9 °F - 37.9 °F 71% 30.20 in - ESE 3.5 mph - N/A   Overcast
10:53 AM 54.0 °F - 37.9 °F 55% 30.17 in - Variable 4.6 mph - N/A   Clear
11:53 AM 57.0 °F - 37.9 °F 49% 30.13 in - West 10.4 mph - N/A   Scattered Clouds
12:53 PM 59.0 °F - 39.0 °F 48% 30.09 in - SSW 10.4 mph - N/A   Clear
1:53 PM 59.0 °F - 37.9 °F 46% 30.07 in - West 9.2 mph 20.7 mph N/A   Clear
2:53 PM 59.0 °F - 39.0 °F 48% 30.07 in - SW 11.5 mph - N/A   Clear
3:53 PM 59.0 °F - 39.0 °F 48% 30.08 in - West 6.9 mph - N/A   Clear
4:53 PM 57.0 °F - 39.0 °F 51% 30.11 in - West 6.9 mph - N/A   Clear
5:53 PM 50.0 °F - 39.0 °F 66% 30.12 in - Calm Calm - N/A   Clear
6:53 PM 48.9 °F - 37.9 °F 66% 30.14 in - Calm Calm - N/A   Clear
7:53 PM 46.0 °F - 39.0 °F 76% 30.12 in - Calm Calm - N/A   Clear
8:53 PM 42.1 °F - 37.0 °F 82% 30.12 in - Calm Calm - N/A   Clear
9:53 PM 39.0 °F - 36.0 °F 89% 30.13 in - Calm Calm - N/A   Clear
10:53 PM 39.0 °F - 36.0 °F 89% 30.13 in - Calm Calm - N/A   Clear
11:53 PM 37.9 °F - 35.1 °F 89% 30.11 in - Calm Calm - N/A   Clear